Location: Unspecified
(0.0000°N, 0.0000°E)
Time: 20:59:10
(UTC+01:00)

Delta 168 - Visible Passes

Search period start: 19 February 2018 00:00
Search period end: 01 March 2018 00:00
Orbit: 394 x 2060 km, 25.3° (Epoch: 18 February)

Date Brightness Start Highest point End Pass type
(mag) Time Alt. Az. Time Alt. Az. Time Alt. Az.
19 Feb 7.0 20:33:04 10° SW 20:40:34 18° SSW 20:47:10 10° SSE visible
19 Feb 6.9 22:37:34 10° SSW 22:40:40 13° S 22:40:40 13° S visible
20 Feb 7.0 20:21:24 10° SW 20:29:01 18° S 20:35:51 10° SSE visible
20 Feb 6.8 22:25:07 10° SSW 22:29:49 14° S 22:29:49 14° S visible
21 Feb 7.0 20:09:44 10° SW 20:17:29 18° S 20:24:32 10° SSE visible
21 Feb 6.7 22:12:45 10° SSW 22:18:54 16° S 22:18:56 16° S visible
22 Feb 7.0 19:58:04 10° SW 20:05:56 18° S 20:13:12 10° SSE visible
22 Feb 6.7 22:00:27 10° SSW 22:07:30 18° S 22:08:01 18° S visible
23 Feb 7.0 19:46:25 10° SW 19:54:23 19° S 20:01:52 10° SE visible
23 Feb 6.6 21:48:11 10° SW 21:56:03 20° S 21:57:04 20° SSE visible
24 Feb 7.0 19:34:46 10° SW 19:42:50 19° S 19:50:31 10° SE visible
24 Feb 6.5 21:35:57 10° SW 21:44:33 22° S 21:46:08 21° SSE visible
24 Feb 7.3 23:35:20 10° SW 23:36:03 12° SW 23:36:03 12° SW visible
25 Feb 7.0 19:23:07 10° SW 19:31:16 19° S 19:39:09 10° SE visible
25 Feb 6.4 21:23:44 10° SW 21:33:01 24° SSE 21:35:11 23° SSE visible
25 Feb 7.1 23:23:05 10° SW 23:25:07 16° SW 23:25:07 16° SW visible
26 Feb 6.3 21:11:34 10° SW 21:21:26 27° SSE 21:24:14 24° SE visible
26 Feb 6.9 23:10:51 10° SW 23:14:10 20° SW 23:14:10 20° SW visible
27 Feb 6.3 20:59:25 10° SW 21:09:47 29° SSE 21:13:19 25° SE visible
27 Feb 6.7 22:58:38 10° SW 23:03:15 25° SW 23:03:15 25° SW visible
28 Feb 6.2 20:47:19 10° SW 20:58:06 31° SSE 21:02:25 25° SE visible
28 Feb 6.5 22:46:26 10° SW 22:52:21 31° SW 22:52:21 31° SW visible
